Tracking 20040 objects as of 18-Nov-2019
Live streaming from Space Station
objects crossing your sky now

SL-14 DEB

Track SL-14 DEB now!
10-day predictions


NORAD ID: 39976
Int'l Code: 1987-068DC
Perigee: 900.8 km
Apogee: 918.4 km
Inclination: 82.5 °
Period: 103.0 minutes
Semi major axis: 7280 km
RCS: 0.0056 m2 (small)
Launch date: August 18, 1987
Source: Commonwealth of Independent States (former USSR) (CIS)
Launch site: PLESETSK MISSILE AND SPACE COMPLEX (PKMTR)

Note: This is SATELLITE DEBRIS
aabbcc
Your satellite tracking list
Your tracking list is empty




NASA's NSSDC Master Catalog

Two Line Element Set (TLE):
1 39976U 87068DC  19321.70638706 +.00000346 +00000-0 +23472-3 0  9990
2 39976 082.5487 317.6896 0012095 073.2440 287.0053 13.97492892796413
Source of the keplerian elements: AFSPC